Home   Weather   Pyatigorsk   Past weeks

Flag for Russia Past Weather in Pyatigorsk, Russia — Yesterday and Last 2 Weeks

Now
27 °F

Clear.


Feels Like: 27 °F
Forecast: 27 / 42 °F
Wind: 1 mph from North

Location: Mineral'Nye Vody

Current Time: Feb 27, 2017 at 12:48:56 am

Latest Report: Feb 27, 2017 at 12:00 am


Visibility: N/A

Pressure: 30.30 "Hg (28.32 "Hg at 533m altitude)

Humidity: 74%

Dew Point: 19 °F

Location of PyatigorskLocation

Past Weather in Pyatigorsk — Graph

°F

Pyatigorsk Temperature Yesterday

Maximum temperature yesterday: 45 °F (at 2:00 am)
Minimum temperature yesterday: 28 °F (at 9:30 pm)
Average temperature yesterday: 36 °F

High & Low Weather Summary for the Past Weeks

 TemperatureHumidityPressure
High68 °F (Feb 25, 2:00 pm)100% (Feb 22, 4:00 am)30.51 "Hg (Feb 22, 4:00 am)
Low7 °F (Feb 18, 7:00 am)24% (Feb 26, 3:00 pm)29.71 "Hg (Feb 22, 7:30 pm)
Average31 °F75%30.13 "Hg
* Reported Feb 11 11:00 pm — Feb 26 11:30 pm, Pyatigorsk, Weather by CustomWeather, © 2017

Note: Actual official high and low records may vary slightly from our data, if they occured in-between our weather recording intervals... More about our weather records

Advertising

Pyatigorsk Weather History for the Previous 24 Hours

Scroll right to see more
 ConditionsComfort  
Time TempWeatherWind HumidityBarometerVisibility
11:30 pm
Sun, Feb 26
30 °FClear.3 mph64%30.30 "HgN/A
11:00 pm30 °FClear.No wind64%30.30 "HgN/A
10:30 pm30 °FClear.3 mph64%30.30 "HgN/A
10:00 pm28 °FClear.3 mph69%30.30 "HgN/A
9:30 pm28 °FClear.6 mph69%30.30 "HgN/A
9:00 pm30 °FClear.8 mph59%30.30 "HgN/A
8:30 pm30 °FClear.8 mph64%30.30 "HgN/A
8:00 pm32 °FClear.6 mph60%30.30 "HgN/A
7:30 pm32 °FClear.8 mph55%30.30 "HgN/A
7:00 pm32 °FClear.10 mph51%30.30 "HgN/A
6:30 pm34 °FClear.6 mph48%30.30 "HgN/A
6:00 pm34 °FClear.10 mph48%30.30 "HgN/A
5:30 pm36 °FClear.10 mph41%30.27 "HgN/A
5:00 pm37 °FClear.10 mph38%30.27 "HgN/A
4:30 pm37 °FClear.15 mph30%30.27 "HgN/A
4:00 pm39 °FClear.20 mph28%30.27 "HgN/A
3:30 pm41 °FClear.17 mph26%30.27 "HgN/A
3:00 pm41 °FClear.20 mph24%30.27 "HgN/A
2:30 pm39 °FClear.20 mph30%30.27 "HgN/A
2:00 pm39 °FClear.22 mph30%30.27 "HgN/A
1:30 pm41 °FClear.24 mph28%30.27 "HgN/A
1:00 pm41 °FClear.22 mph31%30.27 "HgN/A
12:30 pm39 °FClear.20 mph30%30.27 "HgN/A
12:00 pm37 °FClear.20 mph52%30.27 "HgN/A
11:30 am36 °FScattered clouds.22 mph70%30.27 "HgN/A
11:00 am34 °FPartly sunny.24 mph70%30.27 "HgN/A
10:30 am34 °FPartly sunny.26 mph70%30.27 "HgN/A
10:00 am34 °FPartly sunny.24 mph81%30.24 "HgN/A
9:30 am32 °FPartly sunny.24 mph80%30.24 "HgN/A
9:00 am32 °FScattered clouds.24 mph87%30.24 "HgN/A
8:30 am32 °FScattered clouds.26 mph87%30.21 "HgN/A
8:00 am32 °FSnow flurries. Mostly cloudy.26 mph93%30.21 "Hg4 mi
7:30 am32 °FChilly.22 mph100%30.18 "Hg1 mi
7:00 am34 °FSnow flurries. Mostly cloudy.33 mph87%30.15 "Hg4 mi
6:30 am34 °FPassing clouds.29 mph87%30.12 "HgN/A
6:00 am36 °FPassing clouds.24 mph81%30.12 "HgN/A
5:30 am36 °FPassing clouds.31 mph81%30.09 "HgN/A
5:00 am36 °FPassing clouds.29 mph81%30.07 "HgN/A
4:30 am37 °FPassing clouds.31 mph75%30.07 "HgN/A
4:00 am37 °FPassing clouds.38 mph81%30.04 "HgN/A
3:30 am39 °FPassing clouds.39 mph81%30.01 "HgN/A
3:00 am41 °FPassing clouds.24 mph87%29.98 "HgN/A
2:30 am45 °FPassing clouds.26 mph81%29.95 "HgN/A
2:00 am45 °FClear.13 mph76%29.92 "HgN/A
1:30 am43 °FClear.8 mph76%29.89 "HgN/A
1:00 am41 °FClear.8 mph81%29.86 "HgN/A
12:30 am39 °FClear.8 mph87%29.86 "HgN/A
12:00 am39 °FClear.8 mph87%29.86 "HgN/A
Weather by CustomWeather, © 2017

See weather overviewHow to use our weather pages